Stations météo

Publicité
Istres, France (7647): Température de l'air & dewpoint: 14.07.2018 01:00:00 - 20.07.2018 01:00:00 (CEST)Istres, France (7647): Température de l'air 5cm: 14.07.2018 01:00:00 - 20.07.2018 01:00:00 (CEST)Istres, France (7647): Vitesse du vent & gusts: 14.07.2018 01:00:00 - 20.07.2018 01:00:00 (CEST)Istres, France (7647): Direction du vent: 14.07.2018 01:00:00 - 20.07.2018 01:00:00 (CEST)Istres, France (7647): reduced air pressure: 14.07.2018 01:00:00 - 20.07.2018 01:00:00 (CEST)Istres, France (7647): visibility: 14.07.2018 01:00:00 - 20.07.2018 01:00:00 (CEST)Istres, France (7647): Quantités de précipitations: 14.07.2018 01:00:00 - 20.07.2018 01:00:00 (CEST)
Date & Time tt [°C] td [°C] tt 5cm [°C] ff [km/h] ff [knt] fx [km/h] fx [knt] dd ppp [hPa] vv [km] rr [mm]
20.07.2018 01:00:00 23,4 22,2 - 8 4 11 6 ESE 1014,5 25 -
20.07.2018 00:00:00 23,3 22,5 22,7 9 5 11 6 SE 1014,3 26 0,0
19.07.2018 23:00:00 23,4 23,2 22,9 8 4 14 8 SSE 1014,1 32 0,0
19.07.2018 22:00:00 24,1 23,1 23,7 9 5 18 10 SSE 1013,6 35 0,0
19.07.2018 21:00:00 25,8 21,5 26,0 12 7 19 10 SSE 1013,1 42 0,0
19.07.2018 20:00:00 28,9 16,1 31,1 14 8 29 16 SSW 1012,8 38 0,0
19.07.2018 19:00:00 30,8 14,8 35,0 21 11 32 18 SSW 1012,6 29 0,0
19.07.2018 18:00:00 32,2 14,8 37,3 24 13 34 18 SSW 1012,4 33 0,0
19.07.2018 17:00:00 32,9 15,4 39,0 24 13 37 20 SSW 1012,5 39 0,0
19.07.2018 16:00:00 33,2 16,5 39,8 26 14 36 19 S 1012,9 20 0,0
19.07.2018 15:00:00 33,5 15,9 39,7 22 12 32 17 SE 1012,8 20 0,0
19.07.2018 14:00:00 34,1 14,6 41,0 7 4 22 12 S 1013,3 18 0,0
19.07.2018 13:00:00 32,8 13,9 39,1 7 4 23 12 NW 1013,7 18 0,0
19.07.2018 12:00:00 30,8 14,0 37,2 14 8 25 14 N 1013,8 20 0,0
19.07.2018 11:00:00 29,1 15,2 35,1 7 4 19 10 NW 1013,9 20 0,0
19.07.2018 10:00:00 27,7 15,4 32,2 9 5 17 9 N 1013,7 20 0,0
19.07.2018 09:00:00 25,5 17,2 27,3 9 5 14 8 NNW 1013,7 48 0,0
19.07.2018 08:00:00 23,0 20,5 22,8 5 3 8 5 W 1013,7 43 0,0
19.07.2018 07:00:00 21,3 20,6 19,6 3 2 6 3 W 1013,7 32 0,0
19.07.2018 06:00:00 20,9 20,1 19,9 3 2 11 6 N 1013,5 30 0,0
19.07.2018 05:00:00 21,5 20,5 20,8 6 4 17 9 NW 1013,5 33 0,0
19.07.2018 04:00:00 22,7 18,7 21,4 7 4 14 8 SW 1013,2 45 0,0
19.07.2018 03:00:00 24,0 17,7 23,0 6 3 16 8 SSE 1013,2 54 0,0
19.07.2018 02:00:00 24,6 17,3 24,2 11 6 19 10 E 1013,7 56 0,0
19.07.2018 01:00:00 24,8 16,2 24,6 11 6 19 11 ENE 1014,1 57 0,0
19.07.2018 00:00:00 25,2 16,1 24,8 13 7 27 15 NW 1015,2 58 0,0
18.07.2018 23:00:00 24,9 16,3 24,7 19 10 29 15 WSW 1015,9 60 0,0
18.07.2018 22:00:00 25,1 17,0 25,1 11 6 18 10 WSW 1015,1 55 0,0
18.07.2018 21:00:00 26,3 15,7 26,3 14 8 19 11 WSW 1014,2 60 0,0
18.07.2018 20:00:00 28,8 13,5 29,4 16 8 23 13 SSW 1013,4 60 0,0
18.07.2018 19:00:00 31,0 13,3 34,6 17 9 31 17 SW 1012,8 34 0,0
18.07.2018 18:00:00 32,0 13,7 36,2 23 12 37 20 SW 1012,8 37 0,0
18.07.2018 17:00:00 33,0 15,0 38,0 26 14 38 20 SW 1013,0 44 0,0
18.07.2018 16:00:00 35,0 10,1 40,9 10 6 26 14 WSW 1013,1 58 0,0
18.07.2018 15:00:00 34,2 12,0 40,4 12 7 32 17 NNW 1013,4 53 0,0
18.07.2018 14:00:00 32,9 12,0 39,8 10 5 29 15 W 1014,1 20 0,0
18.07.2018 13:00:00 32,0 12,8 38,4 13 7 31 17 NW 1014,7 59 0,0
18.07.2018 12:00:00 30,8 13,6 37,0 10 5 19 11 NW 1015,1 20 0,0
18.07.2018 11:00:00 28,5 14,3 34,3 11 6 19 11 NNW 1015,2 53 0,0
18.07.2018 10:00:00 27,1 14,5 31,6 12 6 23 12 N 1015,1 56 0,0
18.07.2018 09:00:00 25,5 14,3 28,6 12 6 20 11 N 1015,1 41 0,0
18.07.2018 08:00:00 23,9 14,0 24,4 11 6 16 9 N 1015,0 45 0,0
18.07.2018 07:00:00 22,0 14,6 20,0 4 2 15 8 NE 1014,5 51 0,0
18.07.2018 06:00:00 22,9 13,7 20,7 6 4 16 9 NNW 1014,4 60 0,0
18.07.2018 05:00:00 22,8 13,8 21,8 13 7 23 13 N 1014,0 60 0,0
18.07.2018 04:00:00 24,2 13,7 23,4 15 8 25 14 NNW 1014,1 60 0,0
18.07.2018 03:00:00 25,0 13,9 24,0 17 9 27 15 NNW 1014,2 60 0,0
18.07.2018 02:00:00 25,5 14,0 24,4 12 7 29 16 N 1014,4 60 0,0
18.07.2018 01:00:00 26,4 14,2 25,6 22 12 31 17 NNW 1014,5 60 0,0
18.07.2018 00:00:00 27,1 13,4 23,7 17 9 26 14 NNW 1014,1 58 0,0
17.07.2018 23:00:00 26,5 12,5 25,5 14 8 25 14 NW 1014,0 59 0,0
17.07.2018 22:00:00 28,9 11,9 27,8 19 11 30 16 NNW 1013,7 60 0,0
17.07.2018 21:00:00 30,5 11,5 30,1 19 10 34 18 NNW 1013,0 58 0,0
17.07.2018 20:00:00 32,4 11,5 33,9 25 14 44 24 NW 1012,8 31 0,0
17.07.2018 19:00:00 33,1 10,4 36,7 29 16 46 25 NNW 1012,8 18 0,0
17.07.2018 18:00:00 33,5 10,2 37,9 33 18 50 27 NNW 1012,9 10 0,0
17.07.2018 17:00:00 33,2 8,6 37,9 39 21 56 31 NNW 1013,2 8 0,0
17.07.2018 16:00:00 33,2 10,5 38,1 42 23 57 31 NW 1013,4 10 0,0
17.07.2018 15:00:00 32,5 12,7 36,7 39 21 61 33 NNW 1013,6 12 0,0
17.07.2018 14:00:00 31,9 13,2 35,5 44 24 61 33 NW 1013,7 12 0,0
17.07.2018 13:00:00 30,9 13,2 34,3 45 25 64 34 NNW 1014,2 11 0,0
17.07.2018 12:00:00 29,5 14,1 32,3 42 23 62 33 NW 1014,3 10 0,0
17.07.2018 11:00:00 28,4 14,2 30,7 43 23 61 33 NW 1014,3 10 0,0
17.07.2018 10:00:00 27,1 14,5 28,5 45 24 61 33 NW 1014,0 9 0,0
17.07.2018 09:00:00 25,5 15,5 25,7 35 19 52 28 NW 1014,2 9 0,0
17.07.2018 08:00:00 23,4 16,2 22,0 30 16 42 23 WNW 1013,9 9 0,0
17.07.2018 07:00:00 21,4 16,4 20,2 28 15 37 20 WNW 1013,8 6 0,0
17.07.2018 06:00:00 21,1 16,1 20,0 28 15 44 24 WNW 1013,4 50 0,0
17.07.2018 05:00:00 20,7 16,9 20,0 29 16 41 22 WNW 1013,1 54 0,0
17.07.2018 04:00:00 21,0 17,2 20,2 29 16 42 23 WNW 1013,1 55 0,0
17.07.2018 03:00:00 21,0 17,6 20,5 28 15 37 20 WNW 1013,1 56 0,0
17.07.2018 02:00:00 21,9 16,2 21,0 29 15 37 20 W 1013,2 57 0,0
17.07.2018 01:00:00 22,2 15,1 21,5 23 12 35 19 W 1012,8 60 0,0
17.07.2018 00:00:00 23,1 15,4 22,4 26 14 38 21 WNW 1012,7 60 0,0
16.07.2018 23:00:00 23,5 16,5 22,6 20 11 31 17 WNW 1012,3 57 0,0
16.07.2018 22:00:00 23,8 17,1 23,2 19 11 32 17 W 1011,1 57 0,0
16.07.2018 21:00:00 25,0 17,0 24,6 21 11 37 20 W 1010,5 53 0,0
16.07.2018 20:00:00 26,9 17,9 27,2 24 13 36 20 W 1009,9 36 0,0
16.07.2018 19:00:00 28,3 18,7 29,7 16 9 29 15 NNW 1009,4 43 0,0
16.07.2018 18:00:00 27,0 19,9 28,4 13 7 23 13 N 1008,7 38 0,0
16.07.2018 17:00:00 25,1 21,6 24,1 16 9 28 15 NNW 1008,1 20 0,0
16.07.2018 16:00:00 23,0 23,0 19,8 16 8 24 13 N 1008,6 20 0,2
16.07.2018 15:00:00 20,7 20,7 19,3 19 11 41 22 NNW 1009,6 2,1 10,4
16.07.2018 14:00:00 22,9 22,9 21,3 21 12 31 17 NW 1009,1 13 0,2
16.07.2018 13:00:00 22,4 22,4 21,3 14 8 27 14 N 1009,8 11 0,6
16.07.2018 12:00:00 23,5 22,3 24,0 13 7 31 17 N 1009,5 14 0,0
16.07.2018 11:00:00 24,6 19,4 26,0 6 3 20 11 E 1010,5 27 0,0
16.07.2018 10:00:00 23,5 22,8 22,0 11 6 19 11 N 1010,2 16 0,0
16.07.2018 09:00:00 22,7 22,7 22,7 9 5 16 9 NW 1010,1 10 0,0
16.07.2018 08:00:00 22,4 22,4 22,3 8 4 15 8 ENE 1010,3 8 0,0
16.07.2018 07:00:00 22,0 22,0 22,2 8 4 12 7 N 1011,0 8 0,0
16.07.2018 06:00:00 22,5 22,5 22,1 6 4 16 9 E 1011,2 8 0,0
16.07.2018 05:00:00 22,2 22,2 21,6 10 5 14 8 E 1011,5 6 0,0
16.07.2018 04:00:00 22,3 22,3 22,0 9 5 15 8 NNE 1012,5 8 0,0
16.07.2018 03:00:00 23,3 23,3 22,2 2 1 7 4 ESE 1013,7 4,7 0,0
16.07.2018 02:00:00 23,6 23,6 22,8 6 3 14 7 SSE 1013,6 7 0,0
16.07.2018 01:00:00 23,9 23,9 23,5 5 3 12 7 NNE 1013,7 14 0,0
16.07.2018 00:00:00 24,1 24,1 23,5 8 5 11 6 SE 1013,2 12 0,0
15.07.2018 23:00:00 24,0 24,0 23,6 10 5 19 10 SE 1013,4 16 0,0
15.07.2018 22:00:00 24,3 24,3 24,0 14 7 22 12 SE 1013,1 17 0,0
15.07.2018 21:00:00 25,4 24,5 25,7 17 9 23 12 SSE 1012,6 20 0,0
15.07.2018 20:00:00 26,5 24,3 29,3 17 9 28 15 SSE 1012,5 30 0,0
15.07.2018 19:00:00 26,7 24,2 29,6 18 10 30 16 S 1012,4 29 0,0
15.07.2018 18:00:00 28,6 20,6 36,0 19 10 30 16 S 1012,8 30 0,0
15.07.2018 17:00:00 30,8 15,2 38,3 17 9 31 17 S 1013,0 28 0,0
15.07.2018 16:00:00 31,3 14,4 39,4 21 11 35 19 S 1013,4 19 0,0
15.07.2018 15:00:00 32,2 16,5 39,7 25 13 34 19 S 1013,7 20 0,0
15.07.2018 14:00:00 32,9 18,3 39,5 18 10 32 17 WSW 1014,0 35 0,0
15.07.2018 13:00:00 32,9 17,1 41,1 17 9 32 17 S 1014,2 18 0,0
15.07.2018 12:00:00 32,6 16,8 38,1 7 4 15 8 SE 1014,2 20 0,0
15.07.2018 11:00:00 29,9 17,4 34,9 5 3 14 8 E 1014,2 32 0,0
15.07.2018 10:00:00 27,6 17,5 30,1 7 4 27 15 E 1014,4 20 0,0
15.07.2018 09:00:00 26,3 17,4 25,9 17 9 30 16 E 1014,3 26 0,0
15.07.2018 08:00:00 23,7 17,7 22,7 19 10 32 18 NE 1014,9 27 0,0
15.07.2018 07:00:00 21,9 18,5 20,8 21 12 32 17 N 1015,6 29 0,0
15.07.2018 06:00:00 21,6 19,9 20,3 8 4 11 6 WNW 1015,5 20 0,0
15.07.2018 05:00:00 20,7 20,0 20,4 4 2 12 6 NE 1014,3 19 0,0
15.07.2018 04:00:00 21,5 19,6 20,3 4 2 8 4 N 1014,5 16 0,0
15.07.2018 03:00:00 22,4 20,5 20,6 4 2 7 4 SE 1014,4 14 0,0
15.07.2018 02:00:00 23,0 20,0 20,9 2 1 5 3 SSE 1015,0 16 0,0
15.07.2018 01:00:00 23,0 19,8 21,7 3 1 13 7 NNW 1015,5 24 0,0
15.07.2018 00:00:00 24,2 19,7 22,7 2 1 7 4 NNW 1015,1 11 0,0
14.07.2018 23:00:00 25,2 19,3 23,8 4 2 5 3 SW 1014,9 14 0,0
14.07.2018 22:00:00 25,7 21,6 24,7 3 1 11 6 S 1014,5 20 0,0
14.07.2018 21:00:00 27,4 17,8 27,6 8 5 22 12 SSW 1014,0 30 0,0
14.07.2018 20:00:00 28,8 18,3 30,9 16 9 25 13 SSW 1014,0 32 0,0
14.07.2018 19:00:00 29,3 19,3 34,4 15 8 27 15 S 1014,3 20 0,0
14.07.2018 18:00:00 29,7 19,1 36,3 18 10 28 15 S 1014,6 37 0,0
14.07.2018 17:00:00 29,8 18,9 35,4 18 10 31 17 S 1014,7 20 0,0
14.07.2018 16:00:00 30,2 18,9 36,6 20 11 32 17 S 1015,3 20 0,0
14.07.2018 15:00:00 31,0 18,0 37,4 16 9 30 16 S 1015,6 20 0,0
14.07.2018 14:00:00 29,8 18,6 37,3 16 9 31 17 S 1016,1 20 0,0
14.07.2018 13:00:00 30,0 18,4 38,1 21 12 35 19 S 1016,2 45 0,0
14.07.2018 12:00:00 30,4 14,1 36,4 12 7 21 12 SSW 1016,2 20 0,0
14.07.2018 11:00:00 28,3 14,2 32,0 13 7 26 14 WNW 1016,2 49 0,0
14.07.2018 10:00:00 27,4 15,1 28,2 14 7 22 12 NW 1015,9 20 0,0
14.07.2018 09:00:00 26,2 14,3 26,8 9 5 22 12 NNW 1015,8 49 0,0
14.07.2018 08:00:00 25,6 13,4 24,4 5 3 20 11 ENE 1015,2 50 0,0
14.07.2018 07:00:00 24,3 13,8 22,8 7 4 16 9 ENE 1015,5 46 0,0
14.07.2018 06:00:00 23,0 13,7 21,8 8 4 21 11 ENE 1016,3 43 0,0
14.07.2018 05:00:00 21,9 16,0 21,4 10 6 14 8 NNE 1016,7 40 0,0
14.07.2018 04:00:00 22,7 16,3 21,8 3 2 14 8 N 1017,8 24 0,0
14.07.2018 03:00:00 23,2 15,3 21,8 5 3 9 5 S 1017,2 27 0,0
14.07.2018 02:00:00 22,6 15,2 21,9 5 3 11 6 ENE 1016,8 20 0,0
14.07.2018 01:00:00 23,3 18,0 22,4 7 4 10 5 NE 1017,0 32 0,0

tt = Température de l'air
td = dewpoint
tt 5cm = Température de l'air 5cm
ff = Vitesse du vent
fx = gusts
dd = Direction du vent
ppp = reduced air pressure
vv = visibility
rr = Quantités de précipitations

stations d'obs. à proximité